[[{"header":{"parameterUnit":"m.s-1","parameterCategory":1,"la1":30.2991,"la2":30.254,"lo1":-89.0895,"lo2":-89.0444,"dy":0.0017,"dx":0.0017,"nx":28,"ny":28,"refTime":"2024-10-19T21:00:00:Z","depth":0,"parameterNumber":2,"parameterNumberName":"U-component_of_WINDS"},"data":[0,0,0,0,0,0,0,0,0,0,0,0,0,0,0,0,0,0,0,0,0,0,0,0,0,0,0,0,0,0,0,0,0,0,0,0,0,0,0,0,0,0,0,0,0,0,0,0,0,0,0,0,0,0,0,0,0,0,-3.2795,-3.2796,0,-3.2875,-3.2876,-3.2877,-3.2759,-3.2755,-3.2751,-3.2747,-3.2832,-3.2838,-3.2844,0,0,0,0,0,0,0,0,0,0,0,0,0,-3.2543,-3.2548,-3.2795,-3.2796,-3.2797,-3.2875,-3.2876,-3.2877,-3.276,-3.2755,-3.275,-3.2745,-3.283,-3.2837,-3.2845,0,0,0,0,0,0,0,0,0,0,0,0,0,-3.2641,-3.255,-3.2795,-3.2748,-3.2744,-3.2875,-3.2876,-3.2877,-3.2761,-3.2755,-3.2748,-3.2743,-3.2828,-3.2837,-3.2846,-3.3027,0,0,-3.2874,-3.2878,0,0,0,0,0,0,0,0,-3.2635,-3.265,-3.2754,-3.2751,-3.2748,-3.2801,-3.2818,-3.2928,-3.2762,-3.2755,-3.2747,-3.2739,-3.2827,-3.2836,-3.2864,-3.3031,-3.3035,-3.2875,-3.288,-3.2884,-3.2887,0,0,0,0,0,0,0,-3.2629,-3.2646,-3.2827,-3.2756,-3.2752,-3.2723,-3.273,-3.2838,-3.2825,-3.2755,-3.2747,-3.2757,-3.2824,-3.2856,-3.2866,-3.3036,-3.2874,-3.2882,-3.2888,-3.2892,-3.3355,-3.3361,0,0,0,0,0,0,-3.2627,-3.2641,-3.2824,-3.2829,-3.2675,-3.2733,-3.2741,-3.279,-3.2823,-3.2822,-3.2763,-3.2752,-3.2843,-3.2855,-3.2868,-3.3083,-3.2884,-3.2893,-3.2898,-3.3348,-3.3356,-3.3363,0,0,0,0,0,0,-3.2622,-3.2645,-3.2821,-3.2733,-3.2753,-3.2744,-3.28,-3.2795,-3.2827,-3.2829,-3.2826,-3.2798,-3.2839,-3.2855,-3.2988,-3.3084,-3.2897,-3.2905,-3.334,-3.335,-3.336,-3.3514,0,0,0,0,0,0,-3.2616,-3.2644,-3.2712,-3.2735,-3.2758,-3.294,-3.2806,-3.2801,-3.2842,-3.2829,-3.2861,-3.2861,-3.2835,-3.2975,-3.2997,-3.3094,-3.2912,-3.3331,-3.3344,-3.3356,-3.35,-3.3528,-3.3552,0,0,0,0,0,-3.2607,-3.2753,-3.2716,-3.2739,-3.2844,-3.2945,-3.2959,-3.2926,-3.2851,-3.292,-3.2921,-3.286,-3.3069,-3.299,-3.3014,-3.3114,-3.3325,-3.3341,-3.3355,-3.3489,-3.3523,-3.3552,0,0,0,0,0,0,-3.2744,-3.2756,-3.2715,-3.2873,-3.2909,-3.2925,-3.3012,-3.2963,-3.3022,-3.3007,-3.2963,-3.2972,-3.3114,-3.3127,-3.3038,-3.3291,-3.3185,-3.3206,-3.3278,-3.331,-3.3336,-3.3331,-3.292,0,0,0,0,0,-3.2792,-3.2872,-3.2879,-3.3018,-3.3038,-3.3022,-3.3065,-3.3036,-3.3072,-3.3087,-3.3098,-3.3136,-3.321,-3.3261,-3.3329,-3.3501,-3.3506,-3.3582,-3.3607,-3.3629,-3.3648,-3.374,-3.3774,-3.3413,-3.3413,-3.3413,0,0,-3.2893,-3.2909,-3.2963,-3.3046,-3.307,-3.3155,-3.3036,-3.3131,-3.3194,-3.3102,-3.3228,-3.3237,-3.3277,-3.343,-3.3498,-3.3445,-3.3748,-3.3648,-3.3665,-3.3673,-3.3759,-3.3793,-3.3823,-3.3424,-3.3422,-3.342,0,0,-3.3121,-3.3141,-3.3259,-3.3286,-3.3323,-3.3311,-3.334,-3.3364,-3.3366,-3.3491,-3.3423,-3.3498,-3.3627,-3.3658,-3.3691,-3.3929,-3.3875,-3.3952,-3.4088,-3.4178,-3.4207,-3.4232,-3.4318,-3.4349,-3.3971,-3.3971,-3.3971,0,-3.3243,-3.3368,-3.3326,-3.3426,-3.3465,-3.3383,-3.3502,-3.353,-3.3589,-3.3618,-3.3557,-3.3717,-3.3738,-3.3897,-3.3955,-3.3984,-3.4015,-3.3949,-3.4206,-3.423,-3.4253,-3.4335,-3.4367,-3.398,-3.3979,-3.3978,-3.3977,0,-3.3515,-3.3603,-3.3694,-3.3752,-3.38,-3.3909,-3.3885,-3.3939,-3.3905,-3.39,-3.4028,-3.405,-3.4122,-3.4157,-3.4125,-3.4312,-3.4278,-3.4212,-3.4105,-3.4297,-3.4373,-3.4404,-3.3994,-3.399,-3.3987,-3.3985,0,0,-3.3835,-3.3866,-3.3901,-3.3926,-3.396,-3.4028,-3.4133,-3.4202,-3.4249,-3.4292,-3.438,-3.449,-3.4429,-3.4466,-3.4437,-3.4516,-3.4704,-3.444,-3.4441,-3.449,-3.4912,-3.4963,-3.5,-3.4667,-3.4673,-3.4678,-3.4909,0,-3.4063,-3.4245,-3.421,-3.4387,-3.4468,-3.439,-3.4482,-3.4514,-3.4511,-3.458,-3.4576,-3.4656,-3.4568,-3.459,-3.4665,-3.4666,-3.4789,-3.4648,-3.4751,-3.4755,-3.4745,-3.5039,-3.5094,-3.5311,-3.4939,-3.4944,-3.4947,0,-3.4355,-3.4407,-3.4593,-3.4614,-3.4646,-3.473,-3.4789,-3.4855,-3.4889,-3.4882,-3.4923,-3.4878,-3.4983,-3.4873,-3.5018,-3.4923,-3.4962,-3.4969,-3.4977,-3.4987,-3.4865,-3.506,-3.538,-3.5414,-3.4993,-3.499,-3.4986,0,-3.4571,-3.4688,-3.4814,-3.4837,-3.4865,-3.4925,-3.494,-3.4967,-3.501,-3.5062,-3.509,-3.5154,-3.519,-3.5241,-3.5215,-3.5137,-3.5366,-3.5253,-3.5364,-3.5365,-3.5418,-3.5415,-3.5751,-3.544,-3.5439,-3.5439,-3.5438,0,-3.4831,-3.4949,-3.4911,-3.4989,-3.5118,-3.5076,-3.5204,-3.5209,-3.5235,-3.5312,-3.5248,-3.5323,-3.5283,-3.5355,-3.5335,-3.5459,-3.5475,-3.5473,-3.5467,-3.548,-3.5481,-3.5507,-3.5492,-3.5447,-3.5445,-3.5444,-3.5442,0,-3.5096,-3.5076,-3.5208,-3.5222,-3.5228,-3.5323,-3.5335,-3.5408,-3.5399,-3.5499,-3.5519,-3.5507,-3.5588,-3.5566,-3.5655,-3.5641,-3.5798,-3.5772,-3.5787,-3.5781,-3.5894,-3.5884,-3.626,-3.6308,-3.5964,-3.5968,-3.597,0,-3.5265,-3.5353,-3.5376,-3.5423,-3.5441,-3.5518,-3.5561,-3.5523,-3.557,-3.5615,-3.5683,-3.5758,-3.5816,-3.5949,-3.5948,-3.6016,-3.5992,-3.6118,-3.6002,-3.6012,-3.5996,-3.5992,-3.6001,-3.6143,-3.6147,-3.615,-3.6153,0,-3.5567,-3.5552,-3.5616,-3.5677,-3.573,-3.5776,-3.5817,-3.5859,-3.5823,-3.588,-3.5961,-3.6006,-3.6096,-3.6171,-3.6233,-3.6248,-3.6196,-3.6189,-3.6218,-3.6234,-3.624,-3.624,-3.5852,-3.6181,-3.6178,-3.6176,-3.6175,-3.6174,-3.579,-3.5864,-3.5892,-3.5965,-3.5991,-3.603,-3.6099,-3.6098,-3.6165,-3.6234,-3.6207,-3.63,-3.6331,-3.6408,-3.6431,-3.6504,-3.6456,-3.6498,-3.6509,-3.6521,-3.6536,-3.6226,-3.6515,-3.6514,-3.6513,-3.6512,-3.6512,0,-3.6089,-3.6103,-3.617,-3.6228,-3.6286,-3.6229,-3.627,-3.6323,-3.6406,-3.6438,-3.6496,-3.659,-3.6662,-3.6666,-3.6735,-3.6793,-3.677,-3.6812,-3.6809,-3.6813,-3.6574,-3.6543,-3.6829,-3.6829,-3.6829,-3.6829,-3.6829,-3.6829,-3.6252,-3.6375,-3.6364,-3.6499,-3.6511,-3.6601,-3.663,-3.6666,-3.6691,-3.6798,-3.6858,-3.6859,-3.688,-3.6949,-3.7014,-3.7013,-3.7042,-3.7093,-3.7084,-3.6861,-3.683,-3.68,-3.677,-3.7099,-3.71,-3.7317,-3.7319,-3.732]},{"header":{"parameterUnit":"m.s-1","parameterCategory":1,"la1":30.2991,"la2":30.254,"lo1":-89.0895,"lo2":-89.0444,"dy":0.0017,"dx":0.0017,"nx":28,"ny":28,"refTime":"2024-10-19T21:00:00:Z","depth":0,"parameterNumber":3,"parameterNumberName":"V-component_of_WINDS"},"data":[0,0,0,0,0,0,0,0,0,0,0,0,0,0,0,0,0,0,0,0,0,0,0,0,0,0,0,0,0,0,0,0,0,0,0,0,0,0,0,0,0,0,0,0,0,0,0,0,0,0,0,0,0,0,0,0,0,0,-3.2622,-3.2622,0,-3.2629,-3.2629,-3.2629,-3.2598,-3.2597,-3.2596,-3.2595,-3.26,-3.2601,-3.2602,0,0,0,0,0,0,0,0,0,0,0,0,0,-3.2579,-3.258,-3.2622,-3.2622,-3.2622,-3.2629,-3.2629,-3.2629,-3.2598,-3.2597,-3.2596,-3.2595,-3.26,-3.2601,-3.2602,0,0,0,0,0,0,0,0,0,0,0,0,0,-3.2593,-3.258,-3.2622,-3.2608,-3.2606,-3.2629,-3.2629,-3.2629,-3.2598,-3.2597,-3.2596,-3.2594,-3.26,-3.2601,-3.2603,-3.2639,0,0,-3.2607,-3.2608,0,0,0,0,0,0,0,0,-3.2592,-3.2595,-3.261,-3.2609,-3.2607,-3.2611,-3.2616,-3.2632,-3.2599,-3.2601,-3.2595,-3.2594,-3.2605,-3.2606,-3.261,-3.2639,-3.2639,-3.2607,-3.2608,-3.2609,-3.2609,0,0,0,0,0,0,0,-3.2591,-3.2594,-3.2624,-3.261,-3.2608,-3.26,-3.26,-3.2619,-3.2611,-3.2601,-3.2599,-3.26,-3.2604,-3.2609,-3.261,-3.2639,-3.2607,-3.2609,-3.2609,-3.261,-3.2695,-3.2696,0,0,0,0,0,0,-3.2593,-3.2593,-3.2624,-3.2625,-3.2596,-3.2602,-3.2602,-3.2611,-3.261,-3.2609,-3.2601,-3.2598,-3.2607,-3.2608,-3.261,-3.265,-3.2609,-3.261,-3.2611,-3.2693,-3.2695,-3.2696,0,0,0,0,0,0,-3.2592,-3.2596,-3.2624,-3.2608,-3.2611,-3.2604,-3.2614,-3.2612,-3.2617,-3.261,-3.2609,-3.2608,-3.2606,-3.2608,-3.2631,-3.265,-3.2611,-3.2612,-3.2692,-3.2694,-3.2696,-3.2731,0,0,0,0,0,0,-3.2591,-3.2596,-3.261,-3.2609,-3.2612,-3.2646,-3.2615,-3.2613,-3.2619,-3.2616,-3.2616,-3.2615,-3.2605,-3.2629,-3.2633,-3.2651,-3.2613,-3.269,-3.2693,-3.2695,-3.2728,-3.2734,-3.2739,0,0,0,0,0,-3.2589,-3.262,-3.2611,-3.2615,-3.2631,-3.2647,-3.2649,-3.2638,-3.2621,-3.2635,-3.263,-3.2615,-3.2647,-3.2632,-3.2635,-3.2655,-3.2689,-3.2692,-3.2695,-3.2726,-3.2733,-3.2739,0,0,0,0,0,0,-3.2624,-3.262,-3.261,-3.2641,-3.2645,-3.2642,-3.2659,-3.2646,-3.2654,-3.2651,-3.2636,-3.2636,-3.2661,-3.266,-3.2643,-3.2688,-3.2665,-3.2669,-3.2687,-3.2694,-3.27,-3.2698,-3.2615,0,0,0,0,0,-3.2635,-3.265,-3.2645,-3.2674,-3.2676,-3.2667,-3.2674,-3.2665,-3.2668,-3.2669,-3.2667,-3.2669,-3.268,-3.2687,-3.2697,-3.2728,-3.2727,-3.2743,-3.2749,-3.2753,-3.2756,-3.277,-3.2777,-3.2706,-3.2706,-3.2706,0,0,-3.2658,-3.2658,-3.2668,-3.268,-3.2682,-3.2696,-3.2669,-3.2686,-3.2695,-3.2672,-3.2693,-3.2691,-3.2693,-3.272,-3.2731,-3.272,-3.2775,-3.2757,-3.2761,-3.2761,-3.2774,-3.2781,-3.2787,-3.2709,-3.2708,-3.2708,0,0,-3.2708,-3.271,-3.2733,-3.2734,-3.2737,-3.2731,-3.2736,-3.2735,-3.2733,-3.2754,-3.2735,-3.2747,-3.2766,-3.2767,-3.277,-3.2818,-3.2803,-3.2822,-3.285,-3.2864,-3.2869,-3.2874,-3.2889,-3.2894,-3.2825,-3.2825,-3.2825,0,-3.2736,-3.2758,-3.2746,-3.2763,-3.2768,-3.2747,-3.2768,-3.2771,-3.2776,-3.2779,-3.2766,-3.2788,-3.2789,-3.2814,-3.2825,-3.283,-3.2834,-3.2821,-3.287,-3.2874,-3.2878,-3.2892,-3.2898,-3.2827,-3.2827,-3.2827,-3.2827,0,-3.2791,-3.2806,-3.2824,-3.2829,-3.2836,-3.2856,-3.2845,-3.2854,-3.2843,-3.2838,-3.2858,-3.2858,-3.2865,-3.2871,-3.2862,-3.2895,-3.2887,-3.2872,-3.2849,-3.2887,-3.29,-3.2905,-3.283,-3.283,-3.2829,-3.2828,0,0,-3.2863,-3.286,-3.2867,-3.2868,-3.2868,-3.2879,-3.2897,-3.2904,-3.291,-3.2915,-3.2928,-3.2944,-3.2929,-3.2933,-3.2923,-3.2936,-3.297,-3.2919,-3.2918,-3.2927,-3.3004,-3.3014,-3.302,-3.2961,-3.2962,-3.2963,-3.3003,0,-3.291,-3.294,-3.2928,-3.2959,-3.2971,-3.295,-3.2965,-3.2966,-3.2961,-3.297,-3.2965,-3.2975,-3.2957,-3.2958,-3.297,-3.2964,-3.2985,-3.2961,-3.2971,-3.2971,-3.2969,-3.3027,-3.3038,-3.3076,-3.3008,-3.3009,-3.3009,0,-3.2969,-3.2974,-3.3006,-3.3001,-3.3006,-3.302,-3.3024,-3.3034,-3.3034,-3.3029,-3.3033,-3.302,-3.3035,-3.3012,-3.3032,-3.3016,-3.3019,-3.3017,-3.3018,-3.3017,-3.2992,-3.3026,-3.3088,-3.3093,-3.3018,-3.3017,-3.3016,0,-3.3015,-3.303,-3.305,-3.3052,-3.3049,-3.3058,-3.3057,-3.3056,-3.306,-3.3065,-3.3067,-3.3073,-3.3076,-3.308,-3.3068,-3.3054,-3.3089,-3.3066,-3.3084,-3.3084,-3.3091,-3.309,-3.3153,-3.3097,-3.3096,-3.3096,-3.3096,0,-3.3067,-3.3086,-3.3071,-3.3083,-3.3103,-3.3089,-3.311,-3.3106,-3.3105,-3.3115,-3.3098,-3.3108,-3.3093,-3.31,-3.3091,-3.3108,-3.311,-3.3105,-3.3102,-3.3106,-3.3106,-3.3106,-3.3103,-3.3098,-3.3098,-3.3097,-3.3097,0,-3.3121,-3.3112,-3.3132,-3.3127,-3.3126,-3.3141,-3.3135,-3.3146,-3.3139,-3.3152,-3.3154,-3.3144,-3.3152,-3.3141,-3.3148,-3.3142,-3.3164,-3.3158,-3.3163,-3.3161,-3.3179,-3.3176,-3.3242,-3.3249,-3.319,-3.3191,-3.3191,0,-3.3155,-3.3169,-3.3164,-3.317,-3.3169,-3.3179,-3.3183,-3.3169,-3.3174,-3.3174,-3.3184,-3.319,-3.3195,-3.3208,-3.3201,-3.3206,-3.3198,-3.3221,-3.3199,-3.3201,-3.3196,-3.3195,-3.3195,-3.3225,-3.3226,-3.3227,-3.3227,0,-3.3213,-3.3207,-3.3214,-3.3219,-3.3224,-3.3227,-3.3229,-3.3234,-3.322,-3.3226,-3.3233,-3.3237,-3.3243,-3.3249,-3.3252,-3.325,-3.3235,-3.3234,-3.3238,-3.3241,-3.3243,-3.324,-3.3174,-3.3232,-3.3232,-3.3231,-3.3231,-3.3231,-3.3257,-3.3267,-3.3265,-3.3272,-3.3272,-3.3274,-3.3282,-3.3276,-3.3283,-3.3287,-3.3278,-3.3288,-3.3285,-3.3287,-3.3286,-3.3293,-3.3283,-3.3289,-3.329,-3.3292,-3.3293,-3.3243,-3.3293,-3.3293,-3.3293,-3.3293,-3.3293,0,-3.3312,-3.331,-3.3317,-3.3319,-3.3324,-3.3311,-3.3311,-3.3316,-3.3325,-3.3324,-3.3328,-3.3336,-3.3341,-3.3334,-3.3337,-3.3344,-3.3337,-3.3345,-3.3343,-3.3343,-3.3303,-3.3298,-3.335,-3.335,-3.335,-3.335,-3.335,-3.335,-3.3342,-3.3358,-3.3352,-3.3367,-3.3364,-3.3373,-3.3374,-3.3375,-3.3374,-3.3383,-3.3387,-3.3382,-3.3378,-3.3381,-3.3385,-3.3382,-3.3384,-3.3394,-3.3389,-3.3352,-3.3346,-3.334,-3.3336,-3.3394,-3.3395,-3.3427,-3.3428,-3.3428]}]]